CW6115 Weather Reports


Display with metric or nautical units.
time (UTC)temp
F
wind
direction
speed
MPH
gust
MPH
rain 1hr
in
rain 24hr
in
rain mn
in
humidity
%
barometer
mb
20190325215015 78 342 2.0 6.0 0.00 0.04 0.04 54 1017.2
20190325213516 78 334 2.0 4.0 0.00 0.04 0.04 58 1017.1
20190325212015 78 344 4.0 6.0 0.00 0.04 0.04 60 1017.2
20190325210516 77 343 4.0 5.0 0.00 0.04 0.04 62 1017.2
20190325205015 79 359 4.0 9.0 0.00 0.04 0.04 62 1017.1
20190325203515 77 353 2.0 5.0 0.00 0.04 0.04 67 1017.4
20190325202015 77 336 0.0 3.0 0.00 0.04 0.04 69 1017.4
20190325200515 79 21 2.0 5.0 0.00 0.04 0.04 65 1017.5
20190325195015 78 318 3.0 9.0 0.00 0.04 0.04 67 1017.5
20190325193515 78 336 4.0 6.0 0.00 0.04 0.04 69 1017.7
20190325192015 79 320 4.0 8.0 0.00 0.04 0.04 65 1017.7
20190325190517 78 329 3.0 6.0 0.00 0.04 0.04 69 1017.9
20190325185017 77 235 2.0 7.0 0.00 0.04 0.04 74 1018.2
20190325183517 76 329 1.0 3.0 0.00 0.04 0.04 76 1018.3
20190325182017 76 275 2.0 4.0 0.00 0.04 0.04 77 1018.5
20190325180519 74 310 2.0 4.0 0.00 0.04 0.04 80 1018.8
20190325175017 74 335 2.0 4.0 0.00 0.04 0.04 84 1019.0
20190325173517 72 298 2.0 3.0 0.00 0.04 0.04 85 1019.0
20190325172016 71 302 0.0 2.0 0.00 0.04 0.04 87 1019.3
20190325170516 71 241 1.0 2.0 0.00 0.04 0.04 88 1019.2
20190325165016 71 266 1.0 3.0 0.00 0.04 0.04 89 1019.3
20190325163516 70 252 2.0 4.0 0.00 0.04 0.04 90 1019.4
20190325162016 70 284 1.0 3.0 0.00 0.04 0.04 90 1019.5
20190325160517 69 292 1.0 3.0 0.00 0.04 0.04 94 1019.4
20190325155017 68 292 1.0 2.0 0.00 0.04 0.04 95 1019.4
20190325153516 68 270 1.0 3.0 0.01 0.04 0.04 95 1019.3
20190325152016 67 240 1.0 3.0 0.03 0.04 0.04 95 1019.2
20190325150516 67 0.0 0.0 0.03 0.04 0.04 95 1019.1
20190325145016 67 246 0.0 2.0 0.03 0.04 0.04 95 1018.9
20190325143521 67 249 1.0 2.0 0.02 0.03 0.03 95 1018.8
20190325142016 67 0.0 1.0 0.00 0.01 0.01 95 1018.9
20190325140516 66 0.0 0.0 0.01 0.01 0.01 95 1018.5
20190325135016 66 0.0 0.0 0.01 0.01 0.01 95 1018.3
20190325133516 66 290 0.0 2.0 0.01 0.01 0.01 94 1018.2
20190325132016 66 0.0 0.0 0.01 0.01 0.01 94 1018.1
20190325130515 67 262 1.0 2.0 0.00 0.00 0.00 94 1017.8
20190325125016 67 0.0 0.0 0.00 0.00 0.00 93 1017.6
20190325123515 67 0.0 0.0 0.00 0.00 0.00 93 1017.6
20190325122015 67 0.0 0.0 0.00 0.00 0.00 93 1017.5
20190325120515 67 0.0 0.0 0.00 0.00 0.00 92 1017.3
20190325115016 67 0.0 0.0 0.00 0.00 0.00 92 1017.1
20190325113516 67 0.0 0.0 0.00 0.00 0.00 91 1016.8
20190325112015 67 0.0 0.0 0.00 0.00 0.00 91 1016.6
20190325110515 67 0.0 0.0 0.00 0.00 0.00 91 1016.6
20190325105015 67 0.0 0.0 0.00 0.00 0.00 91 1016.4
20190325103515 67 226 1.0 4.0 0.00 0.00 0.00 91 1016.3
20190325102015 67 244 1.0 3.0 0.00 0.00 0.00 90 1016.1
20190325100517 67 236 1.0 3.0 0.00 0.00 0.00 91 1016.1
20190325095017 67 225 0.0 3.0 0.00 0.00 0.00 90 1016.0
20190325093517 67 216 2.0 6.0 0.00 0.00 0.00 90 1016.0
20190325092017 67 254 1.0 3.0 0.00 0.00 0.00 90 1016.1
20190325090517 67 275 1.0 4.0 0.00 0.00 0.00 90 1016.0
20190325085017 67 251 1.0 4.0 0.00 0.00 0.00 90 1015.8
20190325083517 67 233 1.0 3.0 0.00 0.00 0.00 91 1015.8
20190325082017 67 207 2.0 4.0 0.00 0.00 0.00 91 1015.7
20190325080517 67 206 2.0 4.0 0.00 0.00 0.00 91 1015.9
20190325075017 67 206 2.0 4.0 0.00 0.00 0.00 92 1016.2
20190325073516 66 210 1.0 2.0 0.00 0.00 0.00 92 1016.3
20190325072016 66 214 1.0 3.0 0.00 0.00 0.00 92 1016.6
20190325070516 67 205 1.0 2.0 0.00 0.00 0.00 92 1016.7
20190325065016 67 175 1.0 3.0 0.00 0.00 0.00 92 1016.8
20190325063516 67 220 2.0 4.0 0.00 0.00 0.00 92 1017.1
20190325062016 67 224 1.0 3.0 0.00 0.00 0.00 92 1017.3
20190325060516 67 228 1.0 3.0 0.00 0.00 0.00 91 1017.5
20190325055016 67 232 1.0 3.0 0.00 0.00 0.00 90 1017.2
20190325053516 67 0.0 0.0 0.00 0.00 0.00 89 1017.2
20190325052016 67 0.0 0.0 0.00 0.00 0.00 88 1017.5
20190325050516 68 196 0.0 2.0 0.00 0.00 0.00 88 1017.4
20190325045015 68 193 0.0 2.0 0.00 0.00 0.00 87 1017.3
20190325043517 69 211 1.0 2.0 0.00 0.00 0.00 86 1017.2
20190325042017 69 0.0 3.0 0.00 0.00 0.00 86 1017.1
20190325040517 70 197 2.0 4.0 0.00 0.00 0.00 85 1017.0
20190325035016 70 155 2.0 3.0 0.00 0.00 0.00 84 1017.1
20190325033517 70 155 2.0 4.0 0.00 0.00 0.00 84 1017.0
20190325032017 70 163 3.0 5.0 0.00 0.00 0.00 84 1016.8
20190325030516 71 160 1.0 4.0 0.00 0.00 0.00 84 1016.6
20190325025016 71 161 1.0 4.0 0.00 0.00 0.00 83 1016.5
20190325023517 71 160 2.0 4.0 0.00 0.00 0.00 83 1016.3
20190325022016 71 165 3.0 5.0 0.00 0.00 0.00 83 1015.9
20190325020516 71 169 1.0 4.0 0.00 0.00 0.00 82 1015.5
20190325015017 72 171 2.0 5.0 0.00 0.00 0.00 81 1015.4
20190325013516 72 164 2.0 5.0 0.00 0.00 0.00 80 1015.2
20190325012016 73 166 2.0 5.0 0.00 0.00 0.00 79 1015.2
20190325010516 73 154 3.0 5.0 0.00 0.00 0.00 77 1015.2
20190325005016 73 156 2.0 3.0 0.00 0.00 0.00 76 1015.1
20190325003516 74 152 2.0 4.0 0.00 0.00 0.00 75 1014.9
20190325002016 75 157 2.0 3.0 0.00 0.00 0.00 73 1014.9
20190325000516 75 161 3.0 6.0 0.00 0.00 0.00 70 1015.0
20190324235016 76 166 3.0 4.0 0.00 0.00 0.00 69 1015.1
20190324233516 77 153 3.0 5.0 0.00 0.00 0.00 67 1015.3
20190324232016 77 154 4.0 6.0 0.00 0.00 0.00 65 1015.3
20190324230516 78 154 3.0 6.0 0.00 0.00 0.00 65 1015.4
20190324225016 78 155 2.0 4.0 0.00 0.00 0.00 63 1015.4
20190324223515 78 160 2.0 4.0 0.00 0.00 0.00 62 1015.2
20190324222015 78 157 2.0 5.0 0.00 0.00 0.00 61 1015.2
20190324220516 79 156 2.0 5.0 0.00 0.00 0.00 60 1015.4